Flag for Poland Weather past 2 weeks in Lidzbark Warmiński, Poland

Now
78 °F

Warm.


Feels Like: 79 °F
Forecast: 60 / 76 °F
Wind: 6 mph from West

Location: Ketrzyn

Current Time: Jul 7, 2015 at 7:41:04 PM

Latest Report: Jul 7, 2015 at 7:00 PM


Visibility: 22 mi

Pressure: 29.82 "Hg

Humidity: 41%

Dew point: 53 °F

Location of Lidzbark WarmińskiLocation

Historic Weather in Lidzbark Warmiński — Graph

°F

Lidzbark Warmiński temperature yesterday

Maximum temperature yesterday: 81 °F (at 9:00 AM)
Minimum temperature yesterday: 60 °F (at 10:00 PM)
Average temperature yesterday: 71 °F

Past Weeks' High & Low Weather Summary

 TemperatureHumidityPressure
High90 °F (Jul 5, 4:00 PM)98% (Jul 1, 6:00 AM)30.45 "Hg (Jul 1, 6:00 AM)
Low42 °F (Jun 27, 4:00 AM)31% (Jul 4, 4:00 PM)29.67 "Hg (Jun 23, 4:00 AM)
Average64 °F69%30.08 "Hg
* Reported Jun 22 10:00 PM — Jul 7 6:00 PM, Lidzbark Warmiński, Weather by CustomWeather, © 2015

Note: Actual official high and low records may vary slightly from our data, if they occured in-between our weather recording intervals... More about our weather records

Advertising

Lidzbark Warmiński weather history for previous 24 hours

 ConditionsComfort  
Time TempWeatherWind HumidityBarometerVisibility
6:00 PM
Tue, Jul 7
79 °FPleasantly warm.7 mph39%29.83 "Hg22 mi
5:00 PM79 °FWarm.8 mph40%29.85 "Hg19 mi
4:00 PM79 °FPleasantly warm.7 mph39%29.86 "Hg19 mi
3:00 PM79 °FWarm.6 mph43%29.88 "Hg19 mi
2:00 PM77 °FWarm.7 mph42%29.90 "Hg19 mi
1:00 PM75 °FMild.8 mph43%29.93 "Hg19 mi
12:00 PM72 °FMild.8 mph49%29.95 "Hg19 mi
11:00 AM72 °FMild.7 mph54%29.96 "Hg17 mi
10:00 AM70 °FMild.8 mph57%29.97 "Hg17 mi
9:00 AM67 °FMild.7 mph59%29.99 "Hg19 mi
8:00 AM64 °FMild.6 mph62%30.00 "Hg22 mi
7:00 AM60 °FCool.3 mph70%30.00 "Hg22 mi
6:00 AM55 °FCool.1 mph84%30.00 "Hg19 mi
4:00 AM54 °FCool.3 mph79%30.01 "Hg28 mi
3:00 AM54 °FCool.3 mph82%30.02 "Hg25 mi
2:00 AM55 °FCool.3 mph81%30.02 "Hg25 mi
1:00 AM55 °FCool.3 mph82%30.02 "Hg25 mi
12:00 AM56 °FCool.2 mph83%30.03 "Hg22 mi
10:00 PM
Mon, Jul 6
60 °FCool.3 mph74%30.02 "Hg22 mi
9:00 PM63 °FMild.3 mph70%30.01 "Hg19 mi
8:00 PM67 °FMild.5 mph66%29.99 "Hg22 mi
7:00 PM68 °FMild.6 mph71%29.98 "Hg19 mi
Weather by CustomWeather, © 2015

See weather overviewHow to use our weather pages